Terminal Aerodrome Forecast
Issued by NWS

Current Version | Previous Version | Graphics & Text | Print | Product List | Glossary On
Versions: 1 2 3 4 5 6 7 8 9 10 11 12 13 14 15 16 17 18
000
FTUS41 KPBZ 190857 AAA
TAFHLG
TAF AMD
KHLG 190857Z 1909/2006 23008KT P6SM BKN017 BKN100
     FM191400 26006KT P6SM SCT250
     FM200300 32003KT P6SM FEW250=

USA.gov is the U.S. government's official web portal to all federal, state and local government web resources and services.